{"data":{"norad_id":58793,"epoch":"2026-05-25T03:49:02.019360Z","epoch_age_seconds":64774,"freshness":"FRESH","line1":"1 58793U 24012G   26145.15905115  .00001150  00000+0  51309-4 0  9994","line2":"2 58793  43.0037  93.1664 0000801 212.3781 147.7022 15.27572061132930","mean_motion":15.27572061,"eccentricity":8.01e-5,"inclination_deg":43.0037,"raan_deg":93.1664,"arg_perigee_deg":212.3781,"mean_anomaly_deg":147.7022,"bstar":5.1309e-5,"rev_number":13293,"period_min":94.26723863078,"perigee_km":482.52328545419,"apogee_km":483.62245127511,"semimajor_km":6861.2098683646,"source":"CELESTRAK","updated_at":"2026-05-25T13:38:18.749387Z"}}